Location: Cheching
(60.0667°N, 164.2167°W)
Time: 07:24:54
(UTC+00:00)

XW-2D - Pass Details

Date: 21 January 2021
Orbit: 505 x 525 km, 97.5° (Epoch: 09 March)

Event Time Altitude Azimuth Distance (km) Brightness Sun altitude
Rises 17:10:33 0° 16° (NNE) 2,671 ? -16.7°
Reaches altitude 10° 17:12:41 10° 19° (NNE) 1,780 ? -16.5°
Maximum altitude 17:16:31 74° 105° (ESE) 555 ? -16.0°
Drops below altitude 10° 17:20:21 10° 191° (S) 1,771 ? -15.5°
Sets 17:22:27 0° 193° (SSW) 2,657 ? -15.3°
